When you browse on this site, cookies collect data to enhance your experience and personalize the content and advertising you see.
Visit our Privacy Policy to learn more. By continuing to use the site, you agree to this use of cookies and data.
  • In Österreich
  • Länderverzeichnis
  • Für 7 Tage
  • Wassertemperatur
  • Satellitenkarten
  • Wetterkarte
  • News
  • Widgets
  • user-avatar
    Anmelden

    Stündliche Wetter Vanadzor

    Heute, 24 Juni, Montag

    Zeit Temperatur Niederschläge Wind Luftdruck Luftfeuchtigkeit
    00:00 +16°C° 0 mm 1 m/S 636 mmHg 89%
    01:00 +16°C° 0 mm 1 m/S 636 mmHg 89%
    02:00 +15°C° 0 mm 1 m/S 636 mmHg 89%
    03:00 +15°C° 0 mm 1 m/S 636 mmHg 89%
    04:00 +16°C° 0.1 mm 1 m/S 636 mmHg 88%
    05:00 +18°C° 0.1 mm 1 m/S 637 mmHg 88%
    06:00 +18°C° 0.1 mm 1 m/S 637 mmHg 88%
    07:00 +20°C° 0.2 mm 1 m/S 637 mmHg 85%
    08:00 +20°C° 0.2 mm 2 m/S 638 mmHg 82%
    09:00 +23°C° 0 mm 2 m/S 638 mmHg 77%
    10:00 +24°C° 0.5 mm 2 m/S 638 mmHg 75%
    11:00 +25°C° 0.5 mm 2 m/S 638 mmHg 73%
    12:00 +25°C° 0.5 mm 2 m/S 638 mmHg 71%
    13:00 +25°C° 0.7 mm 2 m/S 638 mmHg 72%
    14:00 +25°C° 0.7 mm 2 m/S 638 mmHg 73%
    15:00 +25°C° 0 mm 3 m/S 637 mmHg 75%
    16:00 +25°C° 0.5 mm 2 m/S 637 mmHg 78%
    17:00 +24°C° 0.5 mm 2 m/S 637 mmHg 81%
    18:00 +23°C° 0.5 mm 2 m/S 637 mmHg 84%
    19:00 +21°C° 0.6 mm 2 m/S 637 mmHg 85%
    20:00 +20°C° 0.6 mm 1 m/S 637 mmHg 86%
    21:00 +18°C° 0.6 mm 1 m/S 637 mmHg 87%
    22:00 +18°C° 0 mm 1 m/S 637 mmHg 87%
    23:00 +18°C° 0 mm 1 m/S 637 mmHg 86%

    Morgen, 25 Juni, Dienstag

    Zeit Temperatur Niederschläge Wind Luftdruck Luftfeuchtigkeit
    00:00 +16°C° 0 mm 1 m/S 637 mmHg 85%
    01:00 +16°C° 0 mm 1 m/S 637 mmHg 86%
    02:00 +16°C° 0 mm 1 m/S 637 mmHg 87%
    03:00 +15°C° 0 mm 1 m/S 636 mmHg 88%
    04:00 +16°C° 0 mm 1 m/S 637 mmHg 88%
    05:00 +18°C° 0 mm 1 m/S 637 mmHg 88%
    06:00 +19°C° 0 mm 1 m/S 637 mmHg 88%
    07:00 +21°C° 0.1 mm 1 m/S 638 mmHg 84%
    08:00 +22°C° 0.1 mm 1 m/S 638 mmHg 80%
    09:00 +24°C° 0.1 mm 1 m/S 639 mmHg 76%
    10:00 +25°C° 0.2 mm 2 m/S 639 mmHg 73%
    11:00 +25°C° 0.2 mm 2 m/S 639 mmHg 71%
    12:00 +26°C° 0.2 mm 2 m/S 639 mmHg 69%
    13:00 +26°C° 0.5 mm 2 m/S 639 mmHg 69%
    14:00 +26°C° 0.5 mm 2 m/S 639 mmHg 69%
    15:00 +26°C° 0.5 mm 2 m/S 638 mmHg 69%
    16:00 +26°C° 0.4 mm 2 m/S 638 mmHg 72%
    17:00 +25°C° 0.4 mm 2 m/S 638 mmHg 75%
    18:00 +24°C° 0.4 mm 2 m/S 638 mmHg 79%
    19:00 +22°C° 0.2 mm 1 m/S 638 mmHg 80%
    20:00 +21°C° 0.2 mm 1 m/S 637 mmHg 82%
    21:00 +19°C° 0.2 mm 1 m/S 637 mmHg 83%
    22:00 +18°C° 0 mm 1 m/S 637 mmHg 83%
    23:00 +18°C° 0 mm 1 m/S 637 mmHg 82%

    übermorgen, 26 Juni, Mittwoch

    Zeit Temperatur Niederschläge Wind Luftdruck Luftfeuchtigkeit
    00:00 +18°C° 0 mm 1 m/S 637 mmHg 81%
    01:00 +16°C° 0 mm 1 m/S 637 mmHg 81%
    02:00 +16°C° 0 mm 1 m/S 637 mmHg 81%
    03:00 +16°C° 0 mm 1 m/S 637 mmHg 81%
    04:00 +18°C° 0 mm 1 m/S 637 mmHg 82%
    05:00 +19°C° 0 mm 1 m/S 638 mmHg 82%
    06:00 +19°C° 0 mm 1 m/S 638 mmHg 83%
    07:00 +21°C° 0 mm 1 m/S 638 mmHg 78%
    08:00 +22°C° 0 mm 1 m/S 639 mmHg 73%
    09:00 +24°C° 0 mm 2 m/S 639 mmHg 68%
    10:00 +25°C° 0.4 mm 2 m/S 639 mmHg 67%
    11:00 +25°C° 0.4 mm 2 m/S 639 mmHg 66%
    12:00 +26°C° 0.4 mm 2 m/S 639 mmHg 65%
    13:00 +26°C° 0.5 mm 2 m/S 639 mmHg 65%
    14:00 +26°C° 0.5 mm 2 m/S 638 mmHg 65%
    15:00 +26°C° 0.5 mm 2 m/S 638 mmHg 65%
    16:00 +26°C° 0.6 mm 2 m/S 638 mmHg 69%
    17:00 +25°C° 0.6 mm 2 m/S 637 mmHg 73%
    18:00 +24°C° 0.6 mm 2 m/S 637 mmHg 78%
    19:00 +22°C° 0.3 mm 1 m/S 637 mmHg 79%
    20:00 +20°C° 0.3 mm 1 m/S 637 mmHg 80%
    21:00 +18°C° 0.3 mm 1 m/S 636 mmHg 82%
    22:00 +18°C° 0.1 mm 1 m/S 636 mmHg 81%
    23:00 +18°C° 0.1 mm 1 m/S 636 mmHg 80%

    27 Juni, Donnerstag

    Zeit Temperatur Niederschläge Wind Luftdruck Luftfeuchtigkeit
    00:00 +18°C° 0.1 mm 1 m/S 636 mmHg 80%
    01:00 +18°C° 0.2 mm 1 m/S 636 mmHg 80%
    02:00 +16°C° 0.2 mm 1 m/S 636 mmHg 81%
    03:00 +16°C° 0.2 mm 1 m/S 636 mmHg 82%
    04:00 +16°C° 0 mm 1 m/S 636 mmHg 83%
    05:00 +18°C° 0 mm 1 m/S 636 mmHg 85%
    06:00 +18°C° 0 mm 1 m/S 636 mmHg 86%
    07:00 +19°C° 0 mm 1 m/S 636 mmHg 84%
    08:00 +19°C° 0 mm 2 m/S 636 mmHg 83%
    09:00 +20°C° 0 mm 2 m/S 636 mmHg 81%
    10:00 +21°C° 0.2 mm 2 m/S 636 mmHg 81%
    11:00 +21°C° 0.2 mm 2 m/S 635 mmHg 81%
    12:00 +21°C° 0.2 mm 2 m/S 635 mmHg 81%
    13:00 +21°C° 0.2 mm 2 m/S 635 mmHg 80%
    14:00 +23°C° 0.2 mm 2 m/S 635 mmHg 79%
    15:00 +23°C° 0.2 mm 2 m/S 634 mmHg 78%
    16:00 +23°C° 0.2 mm 2 m/S 634 mmHg 81%
    17:00 +21°C° 0.2 mm 2 m/S 634 mmHg 83%
    18:00 +21°C° 0.2 mm 2 m/S 634 mmHg 86%
    19:00 +19°C° 0.3 mm 2 m/S 634 mmHg 89%
    20:00 +19°C° 0.3 mm 1 m/S 634 mmHg 91%
    21:00 +18°C° 0.3 mm 1 m/S 633 mmHg 93%
    22:00 +16°C° 0.4 mm 1 m/S 633 mmHg 94%
    23:00 +16°C° 0.4 mm 1 m/S 633 mmHg 94%

    28 Juni, Freitag

    Zeit Temperatur Niederschläge Wind Luftdruck Luftfeuchtigkeit
    00:00 +16°C° 0.4 mm 1 m/S 633 mmHg 94%
    01:00 +15°C° 0.1 mm 1 m/S 632 mmHg 95%
    02:00 +15°C° 0.1 mm 1 m/S 632 mmHg 95%
    03:00 +15°C° 0.1 mm 1 m/S 632 mmHg 95%
    04:00 +15°C° 0.3 mm 1 m/S 632 mmHg 95%
    05:00 +15°C° 0.3 mm 1 m/S 632 mmHg 95%
    06:00 +16°C° 0.3 mm 1 m/S 632 mmHg 94%
    07:00 +16°C° 0.3 mm 1 m/S 632 mmHg 92%
    08:00 +18°C° 0.3 mm 1 m/S 632 mmHg 89%
    09:00 +18°C° 0.3 mm 2 m/S 632 mmHg 86%
    10:00 +19°C° 0.2 mm 2 m/S 631 mmHg 84%
    11:00 +19°C° 0.2 mm 2 m/S 631 mmHg 83%
    12:00 +20°C° 0.2 mm 2 m/S 631 mmHg 82%
    13:00 +20°C° 0.4 mm 2 m/S 631 mmHg 81%
    14:00 +21°C° 0.4 mm 2 m/S 630 mmHg 80%
    15:00 +21°C° 0.4 mm 3 m/S 630 mmHg 80%
    16:00 +20°C° 0.9 mm 2 m/S 630 mmHg 82%
    17:00 +19°C° 0.9 mm 2 m/S 631 mmHg 85%
    18:00 +19°C° 0.9 mm 2 m/S 631 mmHg 88%
    19:00 +19°C° 0.3 mm 1 m/S 631 mmHg 88%
    20:00 +18°C° 0.3 mm 1 m/S 631 mmHg 88%
    21:00 +15°C° 0.3 mm 0 m/S 631 mmHg 89%
    22:00 +16°C° 0 mm 1 m/S 631 mmHg 89%
    23:00 +15°C° 0 mm 1 m/S 631 mmHg 89%

    29 Juni, Samstag

    Zeit Temperatur Niederschläge Wind Luftdruck Luftfeuchtigkeit
    00:00 +15°C° 0 mm 1 m/S 630 mmHg 89%
    01:00 +14°C° 0 mm 1 m/S 630 mmHg 90%
    02:00 +14°C° 0 mm 1 m/S 630 mmHg 90%
    03:00 +13°C° 0 mm 1 m/S 630 mmHg 91%
    04:00 +14°C° 0 mm 1 m/S 630 mmHg 89%
    05:00 +14°C° 0 mm 0 m/S 630 mmHg 88%
    06:00 +15°C° 0 mm 0 m/S 631 mmHg 87%
    07:00 +19°C° 0 mm 1 m/S 631 mmHg 82%
    08:00 +20°C° 0 mm 1 m/S 631 mmHg 77%
    09:00 +22°C° 0 mm 1 m/S 631 mmHg 72%
    10:00 +22°C° 0.5 mm 1 m/S 631 mmHg 71%
    11:00 +23°C° 0.5 mm 1 m/S 631 mmHg 71%
    12:00 +24°C° 0.5 mm 1 m/S 631 mmHg 70%
    13:00 +24°C° 1.4 mm 1 m/S 631 mmHg 71%
    14:00 +24°C° 1.4 mm 1 m/S 631 mmHg 73%
    15:00 +24°C° 1.4 mm 1 m/S 630 mmHg 74%
    16:00 +23°C° 2 mm 1 m/S 630 mmHg 78%
    17:00 +22°C° 2 mm 1 m/S 630 mmHg 81%
    18:00 +21°C° 2 mm 1 m/S 630 mmHg 84%
    19:00 +20°C° 1.4 mm 1 m/S 630 mmHg 87%
    20:00 +19°C° 1.4 mm 1 m/S 630 mmHg 89%
    21:00 +16°C° 1.4 mm 1 m/S 630 mmHg 91%
    22:00 +16°C° 1.1 mm 1 m/S 630 mmHg 92%
    23:00 +15°C° 1.1 mm 1 m/S 630 mmHg 93%
    Mehr zeigen